sat.trackr.live / text

‹ back to catalog

ONEWEB-0593

NORAD 54659 · 2022-166T

PAYLOAD ACTIVE UNKNOWN

§ Identity

Operator
Country
UK
Launch date
2022-12-08
Launch site
AFETR
Launch vehicle
Mass (kg)
RCS (m²)

Purposes: comms

External: N2YO · Heavens-Above · Gunter

§ Orbital elements

Epoch: 2026-05-25T00:29:11.042880Z

Period
108.94 min
Inclination
87.9253°
Eccentricity
0.0002071
Mean motion
13.21826135 rev/d
Perigee alt
1,176.2 km
Apogee alt
1,179.3 km
Semi-major
7,555.9 km
B*
-4.7578e-5
RAAN
248.5852°
Arg perigee
95.9562°
Mean anomaly
264.1808°
Rev number
16,848

§ Raw data

ONEWEB-05931 54659U 22166T   26145.02026670 -.00000007  00000+0 -47578-4 0  99902 54659  87.9253 248.5852 0002071  95.9562 264.1808 13.21826135168483

JSON: /api/v1/satellites/54659 · /tle

For live sub-satellite position, see the globe view (requires WebGL).

§ Visibility from observer

Set your observer location to see the next 7 days of passes ≥ 10°. The values pass through the URL so the page stays shareable.

No JS? Fill the form by hand. The geolocation button needs JavaScript.